Location: Newark
(35.6799°N, 139.7636°E)
Time: 19:49:45
(UTC+00:00)

Explorer 7 - Pass Details

Date: 15 December 2019
Orbit: 485 x 679 km, 50.3° (Epoch: 22 January)

Event Time Altitude Azimuth Distance (km) Brightness Sun altitude
Rises 10:37:15 0° 312° (NW) 3,033 11.1 -37.4°
Enters shadow 10:39:24 - 317° (NW) 2,221 10.3 -37.8°
Reaches altitude 10° 10:39:43 10° 318° (NW) 2,109 - -37.9°
Maximum altitude 10:44:28 51° 34° (NE) 833 - -38.9°
Drops below altitude 10° 10:49:04 10° 111° (ESE) 2,032 - -39.8°
Sets 10:51:24 0° 116° (ESE) 2,910 - -40.3°
